Date String (YYYY-MM-DD hh:mm:ss) UTC,Instrument flags,Ambient pressure (hPa),Sample flow (lpm),Bypass flow (lpm),Sample temperature (°C),Ambient temperature (°C),ASC tube jacket temperature (°C),LED temperature (°C),Box temperature (°C),Sample RH (%),Span deviation,Mass concentration (μg/m³),Mass concentration (μg/m³),Mass concentration (μg/m³)
DateTimeUTC,F1_M11,P_M11,Q1_M11,Q2_M11,T1_M11,T2_M11,T3_M11,T4_M11,T5_M11,U1_M11,ZSPAN_M11,X2_M11,X0_M11,X1_M11
2021-09-20 22:00:00,,0829.1,5.01,0.00,29.7,28.4,00.0,38.8,31.6,11.6,0000.0,0002.88,0010.71,0001.83
2021-09-20 22:01:00,,0829.0,4.99,0.00,29.8,28.5,00.0,38.8,31.6,11.6,0000.0,0002.86,0010.78,0001.83
2021-09-20 22:02:00,,0828.8,5.00,0.00,29.8,28.6,00.0,38.8,31.7,11.3,0000.0,0002.88,0011.02,0001.83
2021-09-20 22:03:00,,0828.7,5.01,0.00,29.8,28.7,00.0,38.8,31.7,11.3,0000.0,0002.95,0010.38,0001.83
2021-09-20 22:04:00,,0828.8,4.99,0.00,29.9,28.8,00.0,38.8,31.7,11.2,0000.0,0002.91,0010.46,0001.82
2021-09-20 22:05:00,,0828.8,5.02,0.00,29.9,28.9,00.0,38.9,31.8,11.5,0000.0,0003.02,0011.14,0001.81
2021-09-20 22:06:00,,0828.9,4.99,0.00,29.9,28.9,00.0,38.9,31.8,11.6,0000.0,0003.05,0011.53,0001.80
2021-09-20 22:07:00,,0829.0,5.00,0.00,29.9,28.9,00.0,38.9,31.8,11.5,0000.0,0003.08,0011.20,0001.81
2021-09-20 22:08:00,,0828.8,5.01,0.00,29.9,27.2,00.0,38.9,31.3,11.2,0000.0,0003.14,0012.17,0001.81
2021-09-20 22:09:00,,0828.9,5.00,0.00,29.7,26.3,00.0,38.9,31.1,11.1,0000.0,0003.16,0012.79,0001.83
2021-09-20 22:10:00,,0828.9,5.01,0.00,29.6,26.5,00.0,38.8,31.1,11.0,0000.0,0003.18,0013.44,0001.82
2021-09-20 22:11:00,,0829.3,4.99,0.00,29.6,26.9,00.0,38.8,31.1,10.9,0000.0,0003.18,0013.21,0001.82
2021-09-20 22:12:00,,0829.3,5.01,0.00,29.6,27.3,00.0,38.8,31.2,10.8,0000.0,0003.18,0012.79,0001.82
2021-09-20 22:13:00,,0828.7,5.00,0.00,29.6,27.6,00.0,38.7,31.3,11.0,0000.0,0003.15,0013.18,0001.82
2021-09-20 22:14:00,,0828.7,5.01,0.00,29.6,27.8,00.0,38.7,31.3,11.0,0000.0,0003.13,0014.03,0001.81
2021-09-20 22:15:00,,0828.9,4.99,0.00,29.6,28.0,00.0,38.7,31.4,11.0,0000.0,0003.11,0013.27,0001.81
2021-09-20 22:16:00,,0829.3,5.01,0.00,29.7,28.2,00.0,38.7,31.5,11.0,0000.0,0003.02,0013.18,0001.80
2021-09-20 22:17:00,,0829.1,5.00,0.00,29.7,28.4,00.0,38.7,31.5,10.9,0000.0,0002.97,0012.99,0001.79
2021-09-20 22:18:00,,0829.1,5.02,0.00,29.7,28.5,00.0,38.7,31.6,11.0,0000.0,0002.95,0013.27,0001.78
2021-09-20 22:19:00,,0829.0,4.99,0.00,29.8,28.6,00.0,38.7,31.6,11.0,0000.0,0002.88,0012.59,0001.78
2021-09-20 22:20:00,,0828.8,5.00,0.00,29.8,28.7,00.0,38.7,31.6,11.1,0000.0,0002.83,0010.92,0001.77
2021-09-20 22:21:00,,0828.8,5.01,0.00,29.8,28.7,00.0,38.8,31.7,11.2,0000.0,0002.79,0011.03,0001.76
2021-09-20 22:22:00,,0829.0,5.00,0.00,29.8,28.8,00.0,38.8,31.7,11.2,0000.0,0002.75,0011.20,0001.76
2021-09-20 22:23:00,,0829.1,4.99,0.00,29.9,28.9,00.0,38.8,31.8,11.3,0000.0,0002.82,0011.45,0001.76
2021-09-20 22:24:00,,0828.9,5.01,0.00,29.9,28.9,00.0,38.8,31.7,11.3,0000.0,0002.90,0010.83,0001.77
2021-09-20 22:25:00,,0828.9,4.99,0.00,29.9,29.0,00.0,38.9,31.7,11.2,0000.0,0003.04,0010.53,0001.78
2021-09-20 22:26:00,,0829.1,5.00,0.00,29.9,29.0,00.0,38.9,31.8,11.1,0000.0,0003.11,0010.95,0001.78
2021-09-20 22:27:00,,0828.9,5.01,0.00,30.0,29.1,00.0,38.9,31.8,11.2,0000.0,0003.17,0011.16,0001.81
2021-09-20 22:28:00,,0828.7,4.99,0.00,30.0,28.8,00.0,38.9,31.7,11.2,0000.0,0003.23,0012.07,0001.82
2021-09-20 22:29:00,,0828.8,5.01,0.00,29.9,26.9,00.0,38.9,31.2,11.3,0000.0,0003.27,0011.93,0001.83
2021-09-20 22:30:00,,0829.0,5.00,0.00,29.7,26.3,00.0,38.9,31.0,11.4,0000.0,0003.33,0012.05,0001.84
2021-09-20 22:31:00,,0829.3,4.99,0.00,29.6,26.6,00.0,38.8,31.1,11.5,0000.0,0003.36,0012.21,0001.85
2021-09-20 22:32:00,,0829.1,5.00,0.00,29.6,27.0,00.0,38.8,31.2,11.6,0000.0,0003.39,0011.95,0001.86
2021-09-20 22:33:00,,0828.8,4.99,0.00,29.6,27.3,00.0,38.8,31.3,11.5,0000.0,0003.45,0011.82,0001.88
2021-09-20 22:34:00,,0828.9,5.01,0.00,29.6,27.6,00.0,38.8,31.3,11.5,0000.0,0003.44,0011.99,0001.89
2021-09-20 22:35:00,,0828.9,4.99,0.00,29.6,27.9,00.0,38.7,31.3,11.4,0000.0,0003.44,0012.44,0001.89
2021-09-20 22:36:00,,0828.9,5.01,0.00,29.6,28.1,00.0,38.7,31.4,11.6,0000.0,0003.39,0012.20,0001.89
2021-09-20 22:37:00,,0828.8,5.00,0.00,29.6,28.2,00.0,38.7,31.4,11.7,0000.0,0003.39,0013.17,0001.89
2021-09-20 22:38:00,,0828.9,4.99,0.00,29.7,28.4,00.0,38.7,31.5,11.7,0000.0,0003.41,0013.30,0001.89
2021-09-20 22:39:00,,0828.9,5.01,0.00,29.7,28.5,00.0,38.8,31.5,11.8,0000.0,0003.36,0012.50,0001.89
2021-09-20 22:40:00,,0828.9,5.00,0.00,29.7,28.5,00.0,38.8,31.6,11.8,0000.0,0003.35,0012.96,0001.90
2021-09-20 22:41:00,,0828.9,5.00,0.00,29.7,28.6,00.0,38.8,31.6,11.6,0000.0,0003.30,0014.35,0001.91
2021-09-20 22:42:00,,0828.9,5.00,0.00,29.7,28.7,00.0,38.8,31.6,11.5,0000.0,0003.30,0016.17,0001.91
2021-09-20 22:43:00,,0828.9,5.00,0.00,29.8,28.8,00.0,38.8,31.6,11.3,0000.0,0003.31,0016.33,0001.91
2021-09-20 22:44:00,,0828.9,4.99,0.00,29.8,28.8,00.0,38.8,31.6,11.2,0000.0,0003.34,0016.39,0001.91
2021-09-20 22:45:00,,0829.0,5.01,0.00,29.8,28.8,00.0,38.8,31.6,11.4,0000.0,0003.36,0016.32,0001.91
2021-09-20 22:46:00,,0829.0,5.01,0.00,29.8,28.9,00.0,38.8,31.6,11.3,0000.0,0003.33,0015.84,0001.90
2021-09-20 22:47:00,,0829.0,5.00,0.00,29.8,28.9,00.0,38.9,31.6,11.3,0000.0,0003.30,0015.31,0001.90
2021-09-20 22:48:00,,0829.0,4.99,0.00,29.8,29.0,00.0,38.9,31.7,11.6,0000.0,0003.31,0014.57,0001.90
2021-09-20 22:49:00,,0829.1,5.01,0.00,29.8,29.0,00.0,38.9,31.7,11.4,0000.0,0003.28,0014.29,0001.91
2021-09-20 22:50:00,,0829.1,5.00,0.00,29.8,29.0,00.0,38.9,31.7,11.4,0000.0,0003.33,0013.91,0001.92
2021-09-20 22:51:00,,0829.1,5.00,0.00,29.9,29.0,00.0,38.9,31.7,11.5,0000.0,0003.36,0014.34,0001.93
2021-09-20 22:52:00,,0829.0,4.99,0.00,29.9,29.1,00.0,38.9,31.7,11.6,0000.0,0003.39,0013.33,0001.92
2021-09-20 22:53:00,,0829.1,5.00,0.00,29.9,29.1,00.0,38.9,31.7,11.4,0000.0,0003.37,0011.62,0001.91
2021-09-20 22:54:00,,0829.1,5.01,0.00,29.9,28.1,00.0,38.9,31.4,11.7,0000.0,0003.37,0011.75,0001.92
2021-09-20 22:55:00,,0829.1,5.00,0.00,29.7,26.3,00.0,38.9,30.9,11.6,0000.0,0003.34,0012.16,0001.93
2021-09-20 22:56:00,,0829.1,5.00,0.00,29.6,26.2,00.0,38.8,30.9,11.7,0000.0,0003.33,0012.14,0001.92
2021-09-20 22:57:00,,0829.1,5.00,0.00,29.5,26.6,00.0,38.8,30.9,11.9,0000.0,0003.38,0012.51,0001.92
2021-09-20 22:58:00,,0829.1,5.00,0.00,29.5,27.0,00.0,38.7,31.1,12.0,0000.0,0003.42,0012.56,0001.93
2021-09-20 22:59:00,,0829.2,5.00,0.00,29.5,27.4,00.0,38.7,31.2,11.9,0000.0,0003.42,0011.83,0001.93
